Hondo, TX

10:38 AM CST on December 06, 2019 (GMT -0600)
Hondo Municipal

Weather History for KHDO - October, 2019

Change the Weather History Date:

Tuesday, October 29, 2019

  Actual Average Record
Temperature  
Mean Temperature 65 °F -  
Max Temperature 73 °F 76 °F 89 °F (2004)
Min Temperature 57 °F 54 °F 33 °F (2017)
Growing Degree Days 15 (Base 50)    
Moisture  
Dew Point 60 °F    
Average Humidity 91    
Maximum Humidity 97    
Minimum Humidity 79    
Precipitation  
Precipitation 0.03 in - - ()
Sea Level Pressure  
Sea Level Pressure 29.91 in    
Wind  
Wind Speed 11 mph (NE)    
Max Wind Speed 15 mph    
Max Gust Speed -    
Visibility 8 miles    
Events Rain    
Averages and records for this station are not official NWS values.
T = Trace of Precipitation, MM = Missing Value Source: NWS Daily Summary

Daily Weather History Graph

Daily Weather History Graph

Search for Another Location

Airport or City:

Astronomy

Oct. 29, 2019 Rise Set
Actual Time 7:47 AM CDT 6:53 PM CDT
Civil Twilight 7:22 AM CDT 7:17 PM CDT
Nautical Twilight 6:54 AM CDT 7:45 PM CDT
Astronomical Twilight 6:27 AM CDT 8:13 PM CDT
Moon 9:18 AM CDT (10/29) 8:24 PM CDT (10/29)
Length of Visible Light 11h 54m
Length of Day
11h 05m
Waxing Crescent, 3% of the Moon is Illuminated
Oct 29
Waxing Crescent
Nov 4
First Quarter
Nov 12
Full
Nov 19
Last Quarter
Nov 26
New

Hourly Weather History & Observations

Time (CDT) Temp. Dew Point Humidity Pressure Visibility Wind Dir Wind Speed Gust Speed Precip Events Conditions
12:51 AM 73.0 °F 66.0 °F 79% 29.91 in 10.0 mi ESE 11.5 mph - N/A   Overcast
1:26 AM 72.0 °F 66.9 °F 84% 29.95 in 10.0 mi ESE 12.7 mph - N/A   Overcast
1:51 AM 72.0 °F 66.9 °F 84% 29.91 in 10.0 mi ESE 11.5 mph - N/A   Overcast
2:51 AM 72.0 °F 66.9 °F 84% 29.90 in 10.0 mi East 5.8 mph - N/A   Overcast
3:32 AM 71.1 °F 66.9 °F 87% 29.94 in 10.0 mi ESE 4.6 mph - N/A   Overcast
3:51 AM 71.1 °F 66.9 °F 87% 29.89 in 10.0 mi ESE 4.6 mph - N/A   Overcast
4:51 AM 71.1 °F 66.9 °F 87% 29.88 in 10.0 mi ENE 5.8 mph - N/A   Overcast
5:10 AM 71.1 °F 66.9 °F 87% 29.91 in 10.0 mi ENE 9.2 mph - N/A   Overcast
5:51 AM 66.0 °F 61.0 °F 84% 29.87 in 10.0 mi NE 11.5 mph - N/A   Overcast
6:47 AM 62.6 °F 59.0 °F 88% 29.93 in 10.0 mi NE 15.0 mph - 0.01 in Rain Light Rain
6:51 AM 61.0 °F 59.0 °F 93% 29.90 in 10.0 mi NE 12.7 mph - 0.01 in   Overcast
7:09 AM 60.1 °F 57.9 °F 93% 29.93 in 10.0 mi NE 12.7 mph - 0.00 in Rain Light Rain
7:51 AM 59.0 °F - N/A% 29.91 in 10.0 mi NNE 11.5 mph - 0.00 in   Overcast
7:59 AM 57.9 °F - N/A% 29.95 in 10.0 mi North 12.7 mph - N/A   Overcast
8:51 AM 57.9 °F 55.0 °F 90% 29.93 in 10.0 mi NE 11.5 mph - N/A   Overcast
9:36 AM 57.0 °F 55.0 °F 93% 29.97 in 2.0 mi NE 10.4 mph - 0.00 in Rain Light Rain
9:43 AM 57.9 °F 55.9 °F 93% 29.97 in 2.5 mi NNE 11.5 mph - 0.00 in Rain Light Rain
9:49 AM 57.2 °F 55.4 °F 94% 29.97 in 4.0 mi NNE 13.8 mph - 0.00 in Rain Light Rain
9:50 AM 57.9 °F 55.0 °F 90% 29.94 in 4.0 mi NNE 12.7 mph - 0.00 in Rain Light Rain
10:07 AM 57.0 °F 55.0 °F 93% 29.98 in 10.0 mi NE 10.4 mph - 0.00 in   Overcast
10:14 AM 57.0 °F 55.0 °F 93% 29.98 in 10.0 mi NNE 10.4 mph - 0.00 in   Overcast
10:51 AM 57.9 °F 55.9 °F 93% 29.94 in 10.0 mi NE 12.7 mph - 0.00 in   Overcast
11:05 AM 57.9 °F 55.9 °F 93% 29.98 in 2.0 mi NE 9.2 mph - 0.01 in Rain Light Rain
11:27 AM 59.0 °F 57.0 °F 93% 29.98 in 8.0 mi NE 9.2 mph - 0.01 in Rain Light Rain
11:47 AM 59.0 °F 57.2 °F 94% 29.97 in 10.0 mi NE 12.7 mph - 0.01 in   Overcast
11:51 AM 59.0 °F 57.0 °F 93% 29.94 in 10.0 mi NE 12.7 mph - 0.01 in   Overcast
12:39 PM 60.1 °F 57.9 °F 93% 29.96 in 10.0 mi NE 11.5 mph - 0.00 in   Overcast
12:51 PM 60.1 °F 57.0 °F 90% 29.92 in 10.0 mi ENE 11.5 mph - 0.00 in   Overcast
1:36 PM 61.0 °F 57.9 °F 90% 29.93 in 10.0 mi NE 10.4 mph - N/A   Overcast
1:51 PM 61.0 °F 57.9 °F 90% 29.89 in 10.0 mi ENE 11.5 mph - N/A   Overcast
2:51 PM 62.1 °F 59.0 °F 90% 29.86 in 10.0 mi ENE 12.7 mph - 0.00 in   Overcast
3:51 PM 63.0 °F 60.1 °F 90% 29.84 in 10.0 mi ENE 10.4 mph - 0.01 in   Overcast
4:35 PM 63.0 °F 60.1 °F 90% 29.87 in 10.0 mi ENE 10.4 mph - N/A   Overcast
4:51 PM 64.0 °F 61.0 °F 90% 29.83 in 10.0 mi ENE 12.7 mph - N/A   Overcast
5:51 PM 64.0 °F 61.0 °F 90% 29.83 in 10.0 mi ENE 12.7 mph - N/A   Overcast
6:41 PM 63.0 °F 61.0 °F 93% 29.87 in 10.0 mi NE 11.5 mph - N/A   Overcast
6:51 PM 63.0 °F 60.1 °F 90% 29.85 in 10.0 mi NE 10.4 mph - N/A   Overcast
7:44 PM 62.1 °F 60.1 °F 93% 29.89 in 3.0 mi NE 10.4 mph - N/A   Overcast
7:51 PM 61.0 °F 60.1 °F 97% 29.86 in 3.0 mi NE 11.5 mph - N/A   Overcast
8:51 PM 61.0 °F 59.0 °F 93% 29.88 in 7.0 mi NE 9.2 mph - N/A   Overcast
9:51 PM 60.1 °F 57.9 °F 93% 29.88 in 10.0 mi NE 8.1 mph - 0.00 in   Overcast
10:04 PM 59.0 °F 57.9 °F 96% 29.91 in 9.0 mi NE 9.2 mph - N/A   Overcast
10:21 PM 59.0 °F 57.9 °F 96% 29.91 in 7.0 mi NE 9.2 mph - N/A   Overcast
10:51 PM 59.0 °F 57.9 °F 96% 29.88 in 5.0 mi NE 10.4 mph - N/A   Overcast
11:39 PM 59.0 °F 57.0 °F 93% 29.91 in 2.0 mi NE 9.2 mph - N/A   Overcast
11:51 PM 59.0 °F 57.9 °F 96% 29.89 in 1.8 mi NNE 8.1 mph - N/A   Overcast